TimeCDT,TemperatureF,Dew PointF,Humidity,Sea Level PressureIn,VisibilityMPH,Wind Direction,Wind SpeedMPH,Gust SpeedMPH,PrecipitationIn,Events,Conditions,WindDirDegrees,DateUTC
12:54 AM,66.9,63.0,87,29.97,8.0,Calm,Calm,-,N/A,,Mostly Cloudy,0,2013-05-17 05:54:00
1:54 AM,66.9,63.0,87,29.97,9.0,East,4.6,-,N/A,,Overcast,90,2013-05-17 06:54:00
2:54 AM,66.0,61.0,84,29.98,10.0,East,3.5,-,0.01,,Overcast,80,2013-05-17 07:54:00
3:54 AM,64.9,62.1,90,29.98,8.0,ENE,4.6,-,N/A,,Overcast,70,2013-05-17 08:54:00
4:54 AM,64.9,62.1,90,29.98,7.0,Calm,Calm,-,N/A,,Mostly Cloudy,0,2013-05-17 09:54:00
5:54 AM,64.0,61.0,90,29.99,1.5,Calm,Calm,-,N/A,,Scattered Clouds,0,2013-05-17 10:54:00
6:01 AM,64.4,60.8,88,29.99,6.0,Calm,Calm,-,N/A,,Scattered Clouds,0,2013-05-17 11:01:00
6:54 AM,66.2,62.6,88,30.00,7.0,Calm,Calm,-,N/A,,Partly Cloudy,0,2013-05-17 11:54:00
7:54 AM,68.0,61.0,78,30.00,10.0,SE,5.8,-,N/A,,Mostly Cloudy,140,2013-05-17 12:54:00
8:54 AM,70.0,61.0,73,30.01,10.0,SE,4.6,-,N/A,,Overcast,140,2013-05-17 13:54:00
9:54 AM,70.0,61.0,73,30.03,10.0,South,4.6,-,0.00,Rain,Light Rain,190,2013-05-17 14:54:00
10:54 AM,72.0,62.1,71,30.03,10.0,SSE,4.6,-,0.00,,Scattered Clouds,160,2013-05-17 15:54:00
11:54 AM,70.0,63.0,78,30.03,9.0,SE,6.9,-,0.00,Rain,Light Rain,140,2013-05-17 16:54:00
12:54 PM,70.0,64.0,81,30.03,5.0,Calm,Calm,-,0.01,Rain,Rain,0,2013-05-17 17:54:00
1:54 PM,69.8,62.6,78,30.03,6.0,SE,6.9,-,N/A,Rain,Light Rain,140,2013-05-17 18:54:00
2:54 PM,70.0,63.0,78,30.00,8.0,SE,8.1,-,0.00,,Overcast,140,2013-05-17 19:54:00
3:05 PM,69.8,62.6,78,30.01,8.0,SE,9.2,-,N/A,,Overcast,130,2013-05-17 20:05:00
3:37 PM,71.6,62.6,73,30.00,9.0,SE,12.7,-,N/A,,Overcast,130,2013-05-17 20:37:00
3:54 PM,72.0,63.0,73,29.99,9.0,SSE,10.4,-,N/A,,Mostly Cloudy,150,2013-05-17 20:54:00
4:16 PM,73.4,62.6,69,29.99,9.0,SE,10.4,-,N/A,,Mostly Cloudy,130,2013-05-17 21:16:00
4:54 PM,72.0,63.0,73,29.98,10.0,ESE,8.1,-,N/A,,Overcast,120,2013-05-17 21:54:00
5:04 PM,71.6,62.6,73,29.99,10.0,SE,8.1,-,N/A,,Overcast,140,2013-05-17 22:04:00
5:54 PM,71.1,62.1,73,29.97,10.0,ESE,6.9,-,N/A,,Overcast,120,2013-05-17 22:54:00
6:20 PM,71.6,62.6,73,29.98,10.0,SE,8.1,-,N/A,,Overcast,130,2013-05-17 23:20:00
6:54 PM,70.0,62.1,76,29.98,10.0,SE,4.6,-,N/A,,Overcast,130,2013-05-17 23:54:00
7:54 PM,70.0,62.1,76,29.98,10.0,East,4.6,-,N/A,,Overcast,100,2013-05-18 00:54:00
8:54 PM,70.0,61.0,73,29.99,10.0,ESE,5.8,-,N/A,,Overcast,120,2013-05-18 01:54:00
9:54 PM,66.9,63.0,87,30.01,10.0,Calm,Calm,-,0.00,,Overcast,0,2013-05-18 02:54:00
10:54 PM,66.0,63.0,90,30.01,7.0,Calm,Calm,-,0.02,,Overcast,0,2013-05-18 03:54:00
11:54 PM,66.0,63.0,90,30.00,9.0,NE,4.6,-,N/A,,Overcast,50,2013-05-18 04:54:00